Regional Weather Roundup
Issued by NWS Green Bay, WI

Home | Current Version | Previous Version | Graphics & Text | Print | Product List | Glossary Off
Versions: 1 2 3 4 5 6 7 8 9 10 11 12 13 14 15 16 17 18 19 20 21 22 23 24 25 26 27 28 29 30 31 32 33 34 35 36 37 38 39 40 41 42 43 44 45 46 47 48 49 50

000
ASUS43 KGRB 241511
RWRGRB

NORTH-CENTRAL AND NORTHEAST WISCONSIN REGIONAL WEATHER ROUNDUP
NATIONAL WEATHER SERVICE GREEN BAY WI
1000 AM CDT WED MAY 24 2017

WIZ005-009-010>012-018-019-241600-
NORTH CENTRAL WISCONSIN

CITY           SKY/WX    TMP DP  RH WIND       PRES   REMARKS
IRONWOOD       CLOUDY    52  45  76 N8        29.80F
MANITOWISH WTR CLOUDY    50  46  84 N8        29.77S
ARBOR VITAE    CLOUDY    52  44  75 NE13G18   29.75F
EAGLE RIVER    DRIZZLE   47  45  92 NE8       29.75S
LAND O LAKES   RAIN      48  45  90 CALM      29.78S
RHINELANDER    CLOUDY    50  46  86 NE9       29.75F
PHILLIPS       CLOUDY    53  44  72 E9        29.75S
ANTIGO         CLOUDY    49  47  94 NE15      29.72F
TOMAHAWK       CLOUDY    48  43  82 NE6       29.75F
MERRILL        CLOUDY    49  47  93 NE9       29.73F
$$

WIZ013-073-241600-
NORTHEAST WISCONSIN

CITY           SKY/WX    TMP DP  RH WIND       PRES   REMARKS
IRON MOUNTAIN  LGT RAIN  48  45  89 VRB5      29.74F
MARINETTE      LGT RAIN  49  47  93 NE9       29.73F
OCONTO         CLOUDY    48  47  96 NE7       29.72S
$$

WIZ017-030-035>037-045-241600-
CENTRAL WISCONSIN

CITY           SKY/WX    TMP DP  RH WIND       PRES   REMARKS
MEDFORD        CLOUDY    49  45  86 NE9       29.73F
WAUSAU         CLOUDY    50  48  93 N8        29.70F
MOSINEE        LGT RAIN  48  48 100 N8        29.72F FOG
MARSHFIELD     CLOUDY    51  47  86 NE12      29.70F
WISC RAPIDS    CLOUDY    51  49  92 NE8       29.71S
STEVENS POINT  CLOUDY    48  48 100 NE10      29.71S
WAUPACA        CLOUDY    51  50  95 NE7       29.71S FOG
SHAWANO        CLOUDY    51  48  91 NE8       29.72S
CLINTONVILLE   CLOUDY    48  46  93 NE6       29.71S
WAUTOMA        CLOUDY    50  48  93 NE12      29.69F
$$

WIZ038-039-048-051-241600-
FOX VALLEY

CITY           SKY/WX    TMP DP  RH WIND       PRES   REMARKS
NWS GREEN BAY  CLOUDY    51  51 100 N16G23    29.70S
APPLETON       CLOUDY    48  48 100 NE9       29.68S
OSHKOSH        CLOUDY    51  49  92 N13       29.68S
FOND DU LAC    CLOUDY    52  48  86 N12       29.67F
$$

WIZ022-050-052-241600-
EAST CENTRAL WISCONSIN

CITY           SKY/WX    TMP DP  RH WIND       PRES   REMARKS
EPHRAIM        CLOUDY    46  46 100 N9        29.71S
WASHINGTON ISL CLOUDY    47  46  97 NE9       29.72F
STURGEON BAY   CLOUDY    50  48  93 NE6       29.72S
MANITOWOC      LGT RAIN  49  47  93 NE5       29.70R
SHEBOYGAN      LGT RAIN  49  49 100 NE7       29.68R FOG
$$

LMZ563-521-522-541>543-241600-
LAKESHORE

STATION/POSITION TIME  TEMP    WIND        PRES    VSBY  WAVE
                       AIR SEA DIR/SP/G                  HT/PER
                 (UTC) (F)     (DEG/KT/KT) (MB)    (MI)  (FT/S)
SHEBOYGAN LKSHOR 1500   45      10/ 12/ 14 1005.3R
KEWAUNEE LKSHORE 1448   47      20/ 11/ 15 1005.4S
NORTHPORT PIER   1440   47     340/ 10/ 11 1006.8F
N MID LAKE BUOY  1450   42 40   50/ 10/ 12 1007.2F         1
CHAMBERS ISLAND  1430   47     350/ 14/ 16 1006.4S
MENOMINEE LKSHOR 1448           10/ 15/ 18 1005.7F
$$




USA.gov is the U.S. government's official web portal to all federal, state and local government web resources and services.